Hamilton Island, Australia

8:26 AM AEST on November 24, 2017 (GMT +1000)
Hamilton Island

Weather History for YBHM - October, 2011

Change the Weather History Date:

Sunday, October 30, 2011

  Actual Average Record
Temperature  
Mean Temperature 76 °F -  
Max Temperature 80 °F - - ()
Min Temperature 73 °F - - ()
Cooling Degree Days 12    
Growing Degree Days 26 (Base 50)    
Moisture  
Dew Point 67 °F    
Average Humidity 70    
Maximum Humidity 83    
Minimum Humidity 56    
Precipitation  
Precipitation 0.00 in - - ()
Sea Level Pressure  
Sea Level Pressure 29.89 in    
Wind  
Wind Speed 12 mph ()    
Max Wind Speed 17 mph    
Max Gust Speed -    
T = Trace of Precipitation, MM = Missing Value Source: Averaged Metar Reports

Daily Weather History Graph

Daily Weather History Graph

Search for Another Location

Airport or City:

Trip Planner

Search our weather history database for the weather conditions in past years. The results will help you decide how hot, cold, wet, or windy it might be!

Date:

Astronomy

Oct. 30, 2011 Rise Set
Actual Time 5:23 AM AEST 6:12 PM AEST
Civil Twilight 5:00 AM AEST 6:35 PM AEST
Nautical Twilight 4:33 AM AEST 7:02 PM AEST
Astronomical Twilight 4:06 AM AEST 7:29 PM AEST
Moon 8:09 AM AEST (10/30) 9:51 PM AEST (10/30)
Length of Visible Light 13h 34m
Length of Day
12h 48m
Waxing Crescent, 15% of the Moon is Illuminated
Oct 30
Waxing Crescent
Nov 3
First Quarter
Nov 11
Full
Nov 19
Last Quarter
Nov 25
New

Hourly Weather History & Observations

Time (AEST) Temp. Heat Index Dew Point Humidity Pressure Visibility Wind Dir Wind Speed Gust Speed Precip Events Conditions
12:00 AM 74 °F - 68 °F 78% 29.93 in - East 13.8 mph - -  
12:00 AM 75.2 °F - 68.0 °F 78% 29.92 in - East 13.8 mph - N/A   Unknown
1:00 AM 75.2 °F - 68.0 °F 78% 29.92 in - East 10.4 mph - N/A   Unknown
2:00 AM 73.4 °F - 68.0 °F 83% 29.89 in - East 11.5 mph - N/A   Unknown
3:00 AM 74 °F - 68 °F 77% 29.86 in - East 15.0 mph - -  
3:00 AM 73.4 °F - 68.0 °F 83% 29.86 in - East 15.0 mph - N/A   Unknown
4:00 AM 73.4 °F - 68.0 °F 83% 29.86 in - East 12.7 mph - N/A   Unknown
5:00 AM 73.4 °F - 68.0 °F 83% 29.86 in - East 13.8 mph - N/A   Unknown
6:00 AM 75 °F - 67 °F 69% 29.90 in - East 12.7 mph - -  
6:00 AM 75.2 °F - 66.2 °F 73% 29.89 in - East 12.7 mph - N/A   Unknown
7:00 AM 77.0 °F - 66.2 °F 69% 29.92 in - East 11.5 mph - N/A   Unknown
8:00 AM 78.8 °F - 68.0 °F 69% 29.92 in - ESE 12.7 mph - N/A   Unknown
9:00 AM 80 °F - 68 °F 58% 29.94 in - ESE 15.0 mph - -  
9:00 AM 78.8 °F - 68.0 °F 69% 29.95 in - ESE 13.8 mph - N/A   Unknown
10:00 AM 80.6 °F 82.7 °F 66.2 °F 61% 29.95 in - ESE 15.0 mph - N/A   Unknown
11:00 AM 80.6 °F 82.7 °F 66.2 °F 61% 29.92 in - ESE 12.7 mph - N/A   Unknown
12:00 PM 80 °F - 68 °F 60% 29.90 in - East 12.7 mph - -  
12:00 PM 78.8 °F - 66.2 °F 65% 29.89 in - East 12.7 mph - N/A   Unknown
1:00 PM 78.8 °F - 68.0 °F 69% 29.86 in - East 12.7 mph - N/A   Unknown
2:00 PM 78.8 °F - 66.2 °F 65% 29.83 in - East 17.3 mph - N/A   Unknown
3:00 PM 78 °F - 65 °F 56% 29.84 in - East 16.1 mph - -  
3:00 PM 78.8 °F - 66.2 °F 65% 29.83 in - East 16.1 mph - N/A   Unknown
4:00 PM 77.0 °F - 64.4 °F 65% 29.83 in - East 16.1 mph - N/A   Unknown
5:00 PM 77.0 °F - 64.4 °F 65% 29.83 in - ENE 15.0 mph - N/A   Unknown
6:00 PM 75 °F - 64 °F 61% 29.86 in - ENE 11.5 mph - -  
6:00 PM 75.2 °F - 64.4 °F 69% 29.86 in - ENE 11.5 mph - N/A   Unknown
7:00 PM 75.2 °F - 64.4 °F 69% 29.89 in - ENE 8.1 mph - N/A   Unknown
8:00 PM 75.2 °F - 64.4 °F 69% 29.89 in - East 9.2 mph - N/A   Unknown
9:00 PM 74 °F - 66 °F 68% 29.91 in - East 12.7 mph - -  
9:00 PM 75.2 °F - 66.2 °F 73% 29.92 in - East 11.5 mph - N/A   Unknown
10:00 PM 75.2 °F - 66.2 °F 73% 29.92 in - East 13.8 mph - N/A   Unknown
11:00 PM 73.4 °F - 66.2 °F 78% 29.92 in - East 13.8 mph - N/A   Unknown